When you browse on this site, cookies collect data to enhance your experience and personalize the content and advertising you see.
Visit our Privacy Policy to learn more. By continuing to use the site, you agree to this use of cookies and data.
  • En España
  • Lista de países
  • Para 7 días
  • Temperatura del agua
  • El tiempo en el mapa
  • Informadores
  • user-avatar
    Iniciar sesión

    Tiempo cada hora Stuttgart

    Hoy, 14 Diciembre, Sábado

    Tiempo Temperatura Precipitaciones Viento Presión Humedad
    00:00 +2°C° 0 mm 6 mps 719 mmHg 84%
    01:00 +1°C° 0 mm 5 mps 719 mmHg 82%
    02:00 +1°C° 0.1 mm 5 mps 718 mmHg 82%
    03:00 +1°C° 0.1 mm 5 mps 718 mmHg 82%
    04:00 +2°C° 0.1 mm 5 mps 717 mmHg 82%
    05:00 +3°C° 0.6 mm 6 mps 717 mmHg 83%
    06:00 +4°C° 0.6 mm 7 mps 716 mmHg 84%
    07:00 +5°C° 0.6 mm 8 mps 716 mmHg 85%
    08:00 +5°C° 0.2 mm 9 mps 717 mmHg 84%
    09:00 +5°C° 0.2 mm 9 mps 718 mmHg 83%
    10:00 +3°C° 0.2 mm 10 mps 720 mmHg 81%
    11:00 +3°C° 0.2 mm 10 mps 721 mmHg 79%
    12:00 +5°C° 0.2 mm 9 mps 723 mmHg 77%
    13:00 +5°C° 0.2 mm 8 mps 724 mmHg 75%
    14:00 +4°C° 0 mm 7 mps 724 mmHg 76%
    15:00 +4°C° 0 mm 6 mps 725 mmHg 77%
    16:00 +5°C° 0 mm 5 mps 725 mmHg 77%
    17:00 +5°C° 0 mm 5 mps 726 mmHg 78%
    18:00 +5°C° 0 mm 5 mps 726 mmHg 79%
    19:00 +5°C° 0 mm 5 mps 726 mmHg 79%
    20:00 +5°C° 0 mm 4 mps 727 mmHg 81%
    21:00 +6°C° 0 mm 4 mps 727 mmHg 83%
    22:00 +7°C° 0 mm 3 mps 727 mmHg 85%
    23:00 +7°C° 0 mm 3 mps 727 mmHg 86%

    Mañana, 15 Diciembre, Domingo

    Tiempo Temperatura Precipitaciones Viento Presión Humedad
    00:00 +7°C° 0 mm 2 mps 727 mmHg 87%
    01:00 +7°C° 0 mm 2 mps 727 mmHg 88%
    02:00 +8°C° 0.1 mm 3 mps 727 mmHg 87%
    03:00 +7°C° 0.1 mm 4 mps 726 mmHg 87%
    04:00 +8°C° 0.1 mm 4 mps 726 mmHg 86%
    05:00 +8°C° 0.1 mm 5 mps 726 mmHg 85%
    06:00 +8°C° 0.1 mm 5 mps 726 mmHg 84%
    07:00 +8°C° 0.1 mm 6 mps 726 mmHg 83%
    08:00 +9°C° 0.1 mm 6 mps 727 mmHg 82%
    09:00 +9°C° 0.1 mm 6 mps 727 mmHg 81%
    10:00 +9°C° 0.1 mm 6 mps 728 mmHg 79%
    11:00 +9°C° 0.1 mm 6 mps 728 mmHg 79%
    12:00 +10°C° 0.1 mm 6 mps 728 mmHg 79%
    13:00 +10°C° 0.1 mm 6 mps 729 mmHg 79%
    14:00 +10°C° 0.2 mm 4 mps 729 mmHg 83%
    15:00 +9°C° 0.2 mm 3 mps 730 mmHg 86%
    16:00 +9°C° 0.2 mm 2 mps 730 mmHg 89%
    17:00 +9°C° 0.1 mm 2 mps 730 mmHg 90%
    18:00 +9°C° 0.1 mm 2 mps 730 mmHg 90%
    19:00 +8°C° 0.1 mm 2 mps 731 mmHg 91%
    20:00 +8°C° 0.1 mm 2 mps 731 mmHg 90%
    21:00 +8°C° 0.1 mm 2 mps 731 mmHg 90%
    22:00 +8°C° 0.1 mm 2 mps 731 mmHg 90%
    23:00 +8°C° 0 mm 2 mps 731 mmHg 88%

    Pasado mañana, 16 Diciembre, Lunes

    Tiempo Temperatura Precipitaciones Viento Presión Humedad
    00:00 +8°C° 0 mm 2 mps 731 mmHg 87%
    01:00 +8°C° 0 mm 2 mps 731 mmHg 85%
    02:00 +8°C° 0 mm 2 mps 731 mmHg 84%
    03:00 +7°C° 0 mm 2 mps 731 mmHg 82%
    04:00 +7°C° 0 mm 2 mps 731 mmHg 81%
    05:00 +7°C° 0 mm 2 mps 730 mmHg 79%
    06:00 +7°C° 0 mm 2 mps 730 mmHg 77%
    07:00 +6°C° 0 mm 2 mps 730 mmHg 76%
    08:00 +8°C° 0 mm 1 mps 730 mmHg 74%
    09:00 +8°C° 0 mm 1 mps 730 mmHg 73%
    10:00 +8°C° 0 mm 1 mps 730 mmHg 72%
    11:00 +9°C° 0 mm 1 mps 730 mmHg 70%
    12:00 +10°C° 0 mm 1 mps 729 mmHg 68%
    13:00 +11°C° 0 mm 1 mps 729 mmHg 66%
    14:00 +10°C° 0 mm 1 mps 728 mmHg 69%
    15:00 +9°C° 0 mm 2 mps 728 mmHg 72%
    16:00 +8°C° 0 mm 2 mps 728 mmHg 75%
    17:00 +7°C° 0 mm 2 mps 728 mmHg 76%
    18:00 +7°C° 0 mm 2 mps 728 mmHg 78%
    19:00 +6°C° 0 mm 2 mps 728 mmHg 79%
    20:00 +6°C° 0 mm 2 mps 728 mmHg 80%
    21:00 +6°C° 0 mm 2 mps 728 mmHg 81%
    22:00 +6°C° 0 mm 2 mps 728 mmHg 83%
    23:00 +6°C° 0 mm 2 mps 727 mmHg 82%

    17 Diciembre, Martes

    Tiempo Temperatura Precipitaciones Viento Presión Humedad
    00:00 +6°C° 0 mm 2 mps 727 mmHg 82%
    01:00 +7°C° 0 mm 1 mps 727 mmHg 82%
    02:00 +7°C° 0 mm 1 mps 727 mmHg 81%
    03:00 +8°C° 0 mm 1 mps 727 mmHg 81%
    04:00 +8°C° 0 mm 1 mps 727 mmHg 80%
    05:00 +8°C° 0 mm 1 mps 728 mmHg 80%
    06:00 +8°C° 0 mm 1 mps 728 mmHg 80%
    07:00 +8°C° 0 mm 1 mps 728 mmHg 80%
    08:00 +8°C° 0 mm 1 mps 728 mmHg 79%
    09:00 +9°C° 0 mm 1 mps 728 mmHg 79%
    10:00 +9°C° 0 mm 1 mps 729 mmHg 79%
    11:00 +10°C° 0 mm 1 mps 729 mmHg 77%
    12:00 +11°C° 0 mm 1 mps 728 mmHg 75%
    13:00 +12°C° 0 mm 1 mps 728 mmHg 74%
    14:00 +11°C° 0 mm 1 mps 729 mmHg 76%
    15:00 +11°C° 0 mm 1 mps 729 mmHg 78%
    16:00 +10°C° 0 mm 1 mps 729 mmHg 80%
    17:00 +10°C° 0 mm 1 mps 729 mmHg 81%
    18:00 +9°C° 0 mm 1 mps 729 mmHg 82%
    19:00 +8°C° 0 mm 0 mps 730 mmHg 83%
    20:00 +9°C° 0 mm 1 mps 730 mmHg 84%
    21:00 +9°C° 0 mm 1 mps 730 mmHg 84%
    22:00 +8°C° 0 mm 1 mps 730 mmHg 85%
    23:00 +8°C° 0 mm 1 mps 730 mmHg 85%

    18 Diciembre, Miércoles

    Tiempo Temperatura Precipitaciones Viento Presión Humedad
    00:00 +9°C° 0 mm 1 mps 731 mmHg 84%
    01:00 +8°C° 0 mm 2 mps 731 mmHg 84%
    02:00 +8°C° 0 mm 1 mps 731 mmHg 85%
    03:00 +8°C° 0 mm 1 mps 732 mmHg 85%
    04:00 +7°C° 0 mm 0 mps 732 mmHg 86%
    05:00 +7°C° 0 mm 0 mps 732 mmHg 86%
    06:00 +7°C° 0 mm 0 mps 732 mmHg 87%
    07:00 +7°C° 0 mm 0 mps 732 mmHg 87%
    08:00 +7°C° 0 mm 0 mps 732 mmHg 86%
    09:00 +8°C° 0 mm 0 mps 732 mmHg 86%
    10:00 +8°C° 0 mm 0 mps 733 mmHg 85%
    11:00 +9°C° 0 mm 0 mps 732 mmHg 83%
    12:00 +9°C° 0 mm 0 mps 732 mmHg 81%
    13:00 +10°C° 0 mm 0 mps 732 mmHg 79%
    14:00 +9°C° 0 mm 0 mps 732 mmHg 82%
    15:00 +9°C° 0 mm 0 mps 732 mmHg 85%
    16:00 +8°C° 0 mm 0 mps 732 mmHg 88%
    17:00 +8°C° 0 mm 0 mps 732 mmHg 89%
    18:00 +7°C° 0 mm 0 mps 732 mmHg 91%
    19:00 +7°C° 0 mm 0 mps 732 mmHg 92%
    20:00 +7°C° 0 mm 1 mps 732 mmHg 92%
    21:00 +7°C° 0 mm 1 mps 732 mmHg 93%
    22:00 +7°C° 0 mm 1 mps 732 mmHg 93%
    23:00 +7°C° 0 mm 1 mps 731 mmHg 93%

    19 Diciembre, Jueves

    Tiempo Temperatura Precipitaciones Viento Presión Humedad
    00:00 +6°C° 0 mm 1 mps 731 mmHg 93%
    01:00 +6°C° 0 mm 1 mps 731 mmHg 93%
    02:00 +6°C° 0 mm 1 mps 731 mmHg 92%
    03:00 +6°C° 0 mm 1 mps 730 mmHg 92%
    04:00 +6°C° 0 mm 1 mps 730 mmHg 91%
    05:00 +6°C° 0 mm 1 mps 730 mmHg 90%
    06:00 +6°C° 0 mm 1 mps 730 mmHg 90%
    07:00 +6°C° 0 mm 1 mps 729 mmHg 89%
    08:00 +6°C° 0 mm 1 mps 729 mmHg 88%
    09:00 +7°C° 0 mm 1 mps 729 mmHg 86%
    10:00 +7°C° 0 mm 1 mps 729 mmHg 85%
    11:00 +8°C° 0 mm 1 mps 728 mmHg 83%
    12:00 +9°C° 0 mm 1 mps 727 mmHg 80%
    13:00 +10°C° 0 mm 1 mps 726 mmHg 78%
    14:00 +9°C° 0 mm 1 mps 726 mmHg 81%
    15:00 +9°C° 0 mm 1 mps 726 mmHg 83%
    16:00 +8°C° 0 mm 1 mps 725 mmHg 86%
    17:00 +7°C° 0 mm 1 mps 725 mmHg 88%
    18:00 +7°C° 0 mm 1 mps 725 mmHg 89%
    19:00 +6°C° 0 mm 1 mps 725 mmHg 91%
    20:00 +6°C° 0 mm 1 mps 725 mmHg 91%
    21:00 +6°C° 0 mm 1 mps 725 mmHg 91%
    22:00 +5°C° 0 mm 1 mps 725 mmHg 92%
    23:00 +5°C° 0 mm 1 mps 724 mmHg 92%
    Mostrar más